Weather Roundup
Issued by NWS Corpus Christi, TX

Home | Current Version | Previous Version | Text Only | Print | Product List | Glossary On
Versions: 1 2 3 4 5 6 7 8 9 10 11 12 13 14 15 16 17 18 19 20 21 22 23 24 25 26 27 28 29 30 31 32 33 34 35 36 37 38 39 40 41 42 43 44 45 46 47 48 49 50
000
ASUS44 KCRP 020010
HRRCRP

SOUTH TEXAS REGIONAL WEATHER ROUNDUP
NATIONAL WEATHER SERVICE CORPUS CHRISTI TX
700 PM CDT WED OCT 01 2014


TXZ229>244-020100-
...CORPUS CHRISTI AREA OBSERVATIONS...

CITY           SKY/WX    TMP DP  RH WIND       PRES   REMARKS
CORPUS CHRISTI PTCLDY    84  76  76 SE15      29.77R HX  93
NAS CORPUS CHR PTCLDY    84  79  85 SE16      29.77S HX  96
ROCKPORT       CLEAR     83  77  82 SE13      29.77S HX  92
KINGSVILLE NAS PTCLDY    85  79  82 SE12      29.76S HX  98
ALICE          CLEAR     85  77  77 SE15      29.75R HX  95
FALFURRIAS     PTCLDY    85  79  80 E8        29.74R HX  98
$$

...VICTORIA AREA OBSERVATIONS...

CITY           SKY/WX    TMP DP  RH WIND       PRES   REMARKS
VICTORIA       CLEAR     85  75  72 S13       29.78R HX  93
BEEVILLE       FAIR      85  75  70 SE14      29.77R HX  94
PLEASANTON     CLEAR     90  65  43 SE8       29.75S HX  91
SAN ANTONIO    PTCLDY    89  67  47 SE12      29.77S HX  92
$$

...LAREDO AREA OBSERVATIONS...

CITY           SKY/WX    TMP DP  RH WIND       PRES   REMARKS
LAREDO         CLEAR     92  69  46 SE9       29.75R HX  96
COTULLA        CLEAR     92  66  42 SE8       29.73R HX  94
DEL RIO        MOCLDY    89  65  44 SE10      29.71S HX  91
MCALLEN        CLEAR     86  77  74 SE13      29.75R HX  97
HEBBRONVILLE   CLEAR     87  72  59 SE7       29.77S HX  93
$$

...OTHER TEXAS OBSERVATIONS...

CITY           SKY/WX    TMP DP  RH WIND       PRES   REMARKS
BROWNSVILLE    CLEAR     84  80  88 SE15      29.77R HX  97
HOUSTON        PTCLDY    85  74  69 S10       29.78S HX  92
COL. STATION   PTCLDY    87  71  58 SE9       29.77R HX  93
AUSTIN         PTCLDY    88  69  53 S9        29.75S HX  92
WACO           CLEAR     88  66  48 S14       29.75S HX  90
FORT WORTH     PTCLDY    90  64  42 S15       29.72S HX  91
WICHITA FALLS  PTCLDY    92  58  31 S12       29.66S HX  91
LUBBOCK        PTCLDY    82  44  26 SW12      29.78S
EL PASO        CLEAR     83  33  16 W8        29.86S
$$

...MARINE OBSERVATIONS...

STATION/POSITION TIME  SKY/WX   TEMP    WIND        PRES    VSBY  WAVE   SWELL
                                AIR SEA DIR/SP/G                  HT/PER HT/PER
                 (UTC)          (F)     (DEG/KT/KT) (MB)    (MI)  (FT/S) (FT/S)
PORT ARANSAS     2300            83 85  130/ 13/ 14 1009.2R
BUOY 90 E PORT A 0000            83 84  160/ 10/ 12 1009.7R         2/ 5   2/ 8
BUOY 45 SE BAFFI 0000            84 84  160/ 14/ 16 1007.7R         2/ 5
BUOY 200 E PT IS 0000            84 84  170/ 12/ 14 1010.9R         2/ 4
BUOY 15 E GALVES 0000            83 83  170/ 12/ 14 1009.2R         2/ 4
$$



USA.gov is the U.S. government's official web portal to all federal, state and local government web resources and services.